BEIDOU-2 G1

Last updated on Wed Jul 09 2025 00:02:44 GMT+0000 (Coordinated Universal Time)

1 36287U 10001A 25189.53557271 -.00000267 00000+0 00000+0 0 9992 2 36287 3.4880 60.7674 0002352 310.7252 248.5114 1.00271852 56724
UTC large
Height (km)
Speed (km/s)
/
Latitude / Longitude
Inclination (degrees)
Orbital Period (minutes)
Azimuth
Elevation
Range (km)
Doppler Factor

Next 0 passes for location: London (51.5072 / 0.1276)

Sorry there are no passes over London.